[[{"header":{"parameterUnit":"m.s-1","parameterCategory":1,"la1":30.2991,"la2":30.254,"lo1":-89.0895,"lo2":-89.0444,"dy":0.0017,"dx":0.0017,"nx":28,"ny":28,"refTime":"2023-09-19T21:00:00:Z","depth":0,"parameterNumber":2,"parameterNumberName":"U-component_of_WINDS"},"data":[0,0,0,0,0,0,0,0,0,0,0,0,0,0,0,0,0,0,0,0,0,0,0,0,0,0,0,0,0,0,0,0,0,0,0,0,0,0,0,0,0,0,0,0,0,0,0,0,0,0,0,0,0,0,0,0,0,0,-3.0154,-3.0154,0,-3.0203,-3.0204,-3.0205,-3.0138,-3.0135,-3.0133,-3.0131,-3.0181,-3.0184,-3.0188,0,0,0,0,0,0,0,0,0,0,0,0,0,-3.0003,-3.0006,-3.0154,-3.0154,-3.0155,-3.0203,-3.0204,-3.0205,-3.0138,-3.0135,-3.0132,-3.0129,-3.018,-3.0184,-3.0188,0,0,0,0,0,0,0,0,0,0,0,0,0,-3.0062,-3.0007,-3.0154,-3.0128,-3.0126,-3.0203,-3.0204,-3.0205,-3.0139,-3.0135,-3.0131,-3.0128,-3.0178,-3.0184,-3.0189,-3.0294,0,0,-3.0205,-3.0208,0,0,0,0,0,0,0,0,-3.0059,-3.0068,-3.0131,-3.013,-3.0128,-3.0161,-3.0169,-3.0235,-3.014,-3.0134,-3.013,-3.0126,-3.0177,-3.0182,-3.0199,-3.0296,-3.0299,-3.0206,-3.0209,-3.0211,-3.0213,0,0,0,0,0,0,0,-3.0055,-3.0065,-3.0173,-3.0132,-3.013,-3.0114,-3.0118,-3.0181,-3.0175,-3.0134,-3.0129,-3.0136,-3.0175,-3.0194,-3.02,-3.0299,-3.0206,-3.021,-3.0214,-3.0216,-3.0486,-3.049,0,0,0,0,0,0,-3.0054,-3.0062,-3.0172,-3.0175,-3.0084,-3.012,-3.0124,-3.0154,-3.0174,-3.0174,-3.0139,-3.0133,-3.0187,-3.0194,-3.0202,-3.0326,-3.0211,-3.0216,-3.0219,-3.0482,-3.0487,-3.0491,0,0,0,0,0,0,-3.0051,-3.0064,-3.017,-3.0117,-3.013,-3.0126,-3.0159,-3.0157,-3.0175,-3.0178,-3.0177,-3.0159,-3.0185,-3.0194,-3.0272,-3.0326,-3.0219,-3.0224,-3.0477,-3.0484,-3.0489,-3.0575,0,0,0,0,0,0,-3.0047,-3.0063,-3.0103,-3.0119,-3.0133,-3.0239,-3.0163,-3.016,-3.0185,-3.0177,-3.0197,-3.0197,-3.0182,-3.0264,-3.0277,-3.0332,-3.0228,-3.0472,-3.048,-3.0487,-3.0567,-3.0583,-3.0597,0,0,0,0,0,-3.0041,-3.0125,-3.0105,-3.0119,-3.0182,-3.0242,-3.025,-3.0232,-3.019,-3.0229,-3.0231,-3.0196,-3.0319,-3.0273,-3.0287,-3.0344,-3.0469,-3.0478,-3.0487,-3.056,-3.058,-3.0596,0,0,0,0,0,0,-3.0114,-3.0126,-3.0104,-3.0195,-3.0218,-3.0231,-3.028,-3.0253,-3.0288,-3.0279,-3.0256,-3.0261,-3.0344,-3.0352,-3.03,-3.0447,-3.0387,-3.0399,-3.0438,-3.0457,-3.0471,-3.0466,-3.0232,0,0,0,0,0,-3.0141,-3.0189,-3.0197,-3.0276,-3.0289,-3.0283,-3.0309,-3.0293,-3.0316,-3.0325,-3.0333,-3.0356,-3.04,-3.0429,-3.047,-3.0569,-3.0572,-3.0616,-3.0631,-3.0643,-3.0653,-3.0706,-3.0725,-3.052,-3.052,-3.052,0,0,-3.0196,-3.0209,-3.024,-3.0291,-3.0307,-3.0357,-3.0291,-3.0347,-3.0384,-3.0333,-3.0406,-3.0414,-3.0439,-3.0528,-3.0567,-3.0537,-3.0711,-3.0654,-3.0664,-3.0667,-3.0717,-3.0736,-3.0753,-3.0526,-3.0525,-3.0524,0,0,-3.0322,-3.0337,-3.0405,-3.0423,-3.0448,-3.0444,-3.0461,-3.0478,-3.0481,-3.0554,-3.0518,-3.0562,-3.0639,-3.0658,-3.0678,-3.0815,-3.0783,-3.0829,-3.0905,-3.0957,-3.0973,-3.0988,-3.1035,-3.1053,-3.084,-3.084,-3.084,0,-3.0387,-3.0461,-3.0443,-3.0501,-3.0525,-3.0484,-3.0552,-3.0571,-3.0608,-3.0626,-3.0592,-3.0688,-3.0702,-3.0794,-3.0828,-3.0846,-3.0864,-3.0825,-3.0973,-3.0987,-3.1,-3.1045,-3.1063,-3.0845,-3.0845,-3.0844,-3.0844,0,-3.0539,-3.0592,-3.0644,-3.0681,-3.0711,-3.0775,-3.0767,-3.08,-3.0783,-3.0783,-3.0859,-3.0875,-3.0918,-3.094,-3.0924,-3.1032,-3.1012,-3.0976,-3.0914,-3.1025,-3.1066,-3.1084,-3.0853,-3.0851,-3.0849,-3.0848,0,0,-3.0708,-3.0737,-3.0756,-3.0773,-3.08,-3.084,-3.0903,-3.0946,-3.0974,-3.1003,-3.1055,-3.1122,-3.109,-3.1113,-3.1099,-3.1145,-3.1252,-3.1104,-3.1104,-3.1129,-3.1371,-3.1395,-3.1415,-3.1233,-3.1236,-3.1239,-3.1368,0,-3.0832,-3.0939,-3.0926,-3.1029,-3.1077,-3.1041,-3.1095,-3.1118,-3.1121,-3.1162,-3.1166,-3.1213,-3.1167,-3.1181,-3.1226,-3.123,-3.13,-3.1221,-3.128,-3.1282,-3.1271,-3.1437,-3.1463,-3.1583,-3.1384,-3.1387,-3.1389,0,-3.099,-3.1025,-3.1133,-3.1153,-3.1173,-3.1222,-3.1261,-3.1302,-3.1328,-3.1327,-3.1354,-3.1333,-3.1397,-3.1337,-3.1424,-3.1371,-3.1395,-3.1401,-3.1406,-3.1407,-3.1339,-3.1441,-3.1621,-3.1638,-3.1415,-3.1413,-3.1411,0,-3.1099,-3.1174,-3.1248,-3.1264,-3.1291,-3.1326,-3.1339,-3.1362,-3.1389,-3.1424,-3.1442,-3.1484,-3.1507,-3.154,-3.1532,-3.1489,-3.1621,-3.156,-3.1621,-3.1621,-3.1646,-3.1644,-3.183,-3.1668,-3.1668,-3.1667,-3.1667,0,-3.1237,-3.1304,-3.1298,-3.1343,-3.1417,-3.1403,-3.1477,-3.1486,-3.1507,-3.1554,-3.1526,-3.157,-3.1558,-3.1602,-3.1597,-3.1669,-3.168,-3.1681,-3.1678,-3.1681,-3.1681,-3.1694,-3.1684,-3.1672,-3.1671,-3.167,-3.1669,0,-3.137,-3.1369,-3.1447,-3.1467,-3.1474,-3.1527,-3.1545,-3.1588,-3.159,-3.1649,-3.1663,-3.1666,-3.1717,-3.1713,-3.1771,-3.1767,-3.1856,-3.1845,-3.1847,-3.1843,-3.1903,-3.1896,-3.2101,-3.2126,-3.1951,-3.1952,-3.1954,0,-3.1456,-3.1507,-3.1533,-3.1563,-3.1578,-3.1626,-3.1654,-3.1644,-3.1675,-3.171,-3.1749,-3.1798,-3.1835,-3.1919,-3.1926,-3.1971,-3.1958,-3.2028,-3.1965,-3.1967,-3.1957,-3.1952,-3.1957,-3.2038,-3.204,-3.2042,-3.2043,0,-3.1608,-3.1606,-3.1648,-3.169,-3.1725,-3.1758,-3.1788,-3.1814,-3.1807,-3.1843,-3.1895,-3.1925,-3.1985,-3.2033,-3.2076,-3.209,-3.2065,-3.2064,-3.208,-3.2082,-3.208,-3.2079,-3.1877,-3.2058,-3.2057,-3.2055,-3.2055,-3.2054,-3.1718,-3.1762,-3.1788,-3.1836,-3.1858,-3.1887,-3.1929,-3.1937,-3.198,-3.2028,-3.202,-3.2079,-3.2106,-3.2161,-3.2179,-3.2225,-3.22,-3.2224,-3.2229,-3.2234,-3.224,-3.2076,-3.2233,-3.2233,-3.2233,-3.2232,-3.2232,0,-3.1867,-3.1883,-3.1928,-3.1971,-3.2009,-3.1986,-3.2018,-3.2051,-3.2103,-3.2131,-3.217,-3.223,-3.2278,-3.2292,-3.2338,-3.2372,-3.2362,-3.2384,-3.238,-3.2383,-3.2261,-3.2241,-3.2392,-3.2392,-3.2391,-3.2391,-3.2391,-3.2391,-3.1948,-3.2021,-3.2022,-3.2106,-3.2121,-3.2178,-3.2199,-3.2226,-3.2248,-3.2317,-3.2357,-3.2366,-3.2388,-3.2436,-3.248,-3.2483,-3.25,-3.2526,-3.2524,-3.2408,-3.2392,-3.2376,-3.2358,-3.253,-3.2531,-3.2642,-3.2643,-3.2644]},{"header":{"parameterUnit":"m.s-1","parameterCategory":1,"la1":30.2991,"la2":30.254,"lo1":-89.0895,"lo2":-89.0444,"dy":0.0017,"dx":0.0017,"nx":28,"ny":28,"refTime":"2023-09-19T21:00:00:Z","depth":0,"parameterNumber":3,"parameterNumberName":"V-component_of_WINDS"},"data":[0,0,0,0,0,0,0,0,0,0,0,0,0,0,0,0,0,0,0,0,0,0,0,0,0,0,0,0,0,0,0,0,0,0,0,0,0,0,0,0,0,0,0,0,0,0,0,0,0,0,0,0,0,0,0,0,0,0,0.5427,0.5427,0,0.5455,0.5456,0.5456,0.5462,0.5462,0.5462,0.5462,0.5489,0.549,0.5491,0,0,0,0,0,0,0,0,0,0,0,0,0,0.538,0.538,0.5427,0.5427,0.5428,0.5455,0.5456,0.5456,0.5462,0.5462,0.5462,0.5462,0.5489,0.549,0.5491,0,0,0,0,0,0,0,0,0,0,0,0,0,0.5403,0.5381,0.5427,0.5434,0.5435,0.5455,0.5456,0.5456,0.5462,0.5462,0.5462,0.5462,0.5488,0.549,0.5491,0.5505,0,0,0.5495,0.5496,0,0,0,0,0,0,0,0,0.5402,0.5405,0.5433,0.5434,0.5435,0.5455,0.5449,0.5473,0.5463,0.5452,0.5462,0.5461,0.5478,0.548,0.5486,0.5507,0.5508,0.5495,0.5496,0.5497,0.5497,0,0,0,0,0,0,0,0.54,0.5404,0.5438,0.5433,0.5435,0.5437,0.544,0.5454,0.5466,0.5453,0.5454,0.5457,0.5478,0.5485,0.5487,0.5508,0.5495,0.5497,0.5497,0.5498,0.5545,0.5546,0,0,0,0,0,0,0.5397,0.5402,0.5437,0.5439,0.5417,0.5438,0.5441,0.5449,0.5466,0.5469,0.5457,0.5457,0.5483,0.5485,0.5488,0.5507,0.5497,0.5498,0.5499,0.5545,0.5545,0.5546,0,0,0,0,0,0,0.5396,0.54,0.5436,0.5421,0.5426,0.5439,0.5448,0.545,0.5456,0.5469,0.5472,0.5461,0.5482,0.5486,0.5502,0.5508,0.5499,0.55,0.5544,0.5545,0.5546,0.5546,0,0,0,0,0,0,0.5395,0.54,0.5405,0.5421,0.5426,0.5449,0.5448,0.545,0.5458,0.5459,0.5474,0.5476,0.5482,0.55,0.5503,0.551,0.5501,0.5544,0.5545,0.5545,0.5545,0.5546,0.5547,0,0,0,0,0,0.5393,0.5403,0.5405,0.5409,0.5433,0.545,0.5453,0.5461,0.5459,0.5465,0.5474,0.5475,0.5507,0.5501,0.5505,0.5513,0.5543,0.5544,0.5545,0.5545,0.5546,0.5547,0,0,0,0,0,0,0.5386,0.5405,0.5408,0.5423,0.5435,0.5451,0.5458,0.5462,0.5474,0.5473,0.5482,0.5486,0.5502,0.5509,0.5502,0.5529,0.5525,0.5527,0.5524,0.5525,0.5526,0.5524,0.5502,0,0,0,0,0,0.5386,0.5398,0.5414,0.5426,0.5432,0.5444,0.5452,0.5457,0.547,0.5474,0.5484,0.5496,0.551,0.5518,0.553,0.5547,0.5551,0.5554,0.5555,0.5556,0.5557,0.5569,0.5571,0.5549,0.5549,0.5549,0,0,0.5387,0.5399,0.5405,0.5425,0.5435,0.5448,0.5448,0.5461,0.5471,0.5476,0.5492,0.5501,0.5515,0.5532,0.554,0.5538,0.5565,0.5557,0.5558,0.5559,0.557,0.5572,0.5574,0.555,0.555,0.5549,0,0,0.5394,0.5404,0.5416,0.5427,0.5442,0.5451,0.5454,0.547,0.5476,0.5493,0.5498,0.551,0.5532,0.5543,0.5551,0.5566,0.5569,0.557,0.5575,0.5587,0.5589,0.559,0.5597,0.5599,0.5571,0.5572,0.5572,0,0.5392,0.5412,0.5422,0.5435,0.5445,0.5452,0.5465,0.5475,0.5493,0.55,0.5498,0.5528,0.5538,0.5558,0.5563,0.5569,0.5573,0.5568,0.5588,0.5589,0.5591,0.5598,0.56,0.5572,0.5572,0.5572,0.5572,0,0.541,0.5424,0.5432,0.5452,0.5462,0.5475,0.5488,0.5497,0.5503,0.5512,0.553,0.5543,0.5559,0.5565,0.5569,0.5587,0.5586,0.5586,0.5582,0.5593,0.56,0.5602,0.5572,0.5572,0.5572,0.5572,0,0,0.5411,0.5439,0.5442,0.5452,0.5471,0.5482,0.5497,0.5514,0.5523,0.5537,0.555,0.557,0.5571,0.558,0.5587,0.5597,0.5611,0.5596,0.5596,0.5599,0.5633,0.5634,0.5637,0.5613,0.5613,0.5614,0.5633,0,0.5422,0.5448,0.5459,0.5481,0.5495,0.5504,0.5517,0.5531,0.5541,0.5554,0.5565,0.5579,0.5579,0.5585,0.5596,0.5607,0.5618,0.5605,0.5626,0.5627,0.5623,0.564,0.5639,0.5656,0.5635,0.5636,0.5636,0,0.5437,0.5453,0.5476,0.5497,0.5503,0.5515,0.5533,0.5546,0.5563,0.5569,0.5582,0.5588,0.5605,0.5601,0.5626,0.5617,0.5626,0.5634,0.5635,0.5637,0.5632,0.5643,0.5662,0.5665,0.564,0.564,0.5639,0,0.5437,0.5464,0.5482,0.5491,0.5515,0.5523,0.5534,0.555,0.5561,0.5578,0.5585,0.5602,0.5612,0.5626,0.5638,0.5633,0.5662,0.5658,0.5668,0.5668,0.5673,0.5673,0.5694,0.5678,0.5678,0.5678,0.5678,0,0.5448,0.5462,0.5483,0.5494,0.5512,0.5525,0.5542,0.5553,0.5568,0.5583,0.5591,0.5604,0.5619,0.5634,0.5643,0.5663,0.5667,0.5674,0.5676,0.5673,0.5673,0.5679,0.5679,0.5679,0.5679,0.5679,0.5678,0,0.545,0.5465,0.5486,0.5508,0.5514,0.5526,0.5546,0.5558,0.5569,0.5587,0.5592,0.561,0.5629,0.5642,0.5666,0.5673,0.5694,0.5696,0.5689,0.569,0.57,0.5699,0.5727,0.5732,0.5712,0.5712,0.5713,0,0.5456,0.5468,0.5492,0.5503,0.5514,0.5531,0.5543,0.5557,0.557,0.5592,0.5601,0.5622,0.5638,0.5669,0.5684,0.5703,0.5705,0.5714,0.5708,0.5706,0.5707,0.5707,0.5709,0.5715,0.5715,0.5715,0.5715,0,0.5465,0.5473,0.549,0.551,0.5525,0.5541,0.5558,0.5566,0.5584,0.5598,0.5618,0.5631,0.5658,0.5678,0.5699,0.571,0.5716,0.5717,0.5721,0.5718,0.5714,0.5718,0.5692,0.5716,0.5716,0.5716,0.5716,0.5716,0.547,0.5482,0.5502,0.5522,0.5537,0.5553,0.5566,0.5581,0.5598,0.5621,0.5629,0.5651,0.567,0.57,0.5712,0.5729,0.5729,0.5733,0.5735,0.5736,0.5737,0.5711,0.5733,0.5733,0.5733,0.5733,0.5733,0,0.5481,0.5495,0.5513,0.5538,0.5554,0.5559,0.5579,0.5592,0.5612,0.563,0.5647,0.5672,0.5693,0.5711,0.5733,0.5744,0.5747,0.5749,0.5748,0.5751,0.5735,0.5731,0.5746,0.5746,0.5746,0.5746,0.5746,0.5746,0.5488,0.551,0.552,0.555,0.5564,0.5587,0.5598,0.5614,0.5628,0.5656,0.5674,0.5687,0.5705,0.5729,0.5749,0.5754,0.5762,0.5763,0.5769,0.5753,0.5752,0.5751,0.5746,0.5765,0.5765,0.5784,0.5784,0.5784]}]]